Location: Cluny
(50.9333°N, 112.8167°W)
Time: 23:49:02
(UTC-07:00)

Amateur Radio Satellites - All Passes

Search period start: 02 December 2016 23:19
Search period end: 03 December 2016 23:19
Location: Cluny, 50.9333°N, 112.8167°W

Satellite Date Start Highest point End Downlink Frequencies (MHz)
Time Altitude Azimuth
GONETS M04 02 Dec 23:19:11 23:22:27 13° 67° (ENE) 23:25:43
50 SAT 02 Dec 23:27:11 23:30:40 64° 73° (ENE) 23:34:10 437.505
Cosmos 2499 02 Dec 23:27:58 23:32:51 17° 70° (ENE) 23:37:47 435.465 / 435.565
DX 1 02 Dec 23:29:37 23:33:48 49° 69° (ENE) 23:38:02 434.975-435.025
POPSAT HIP 1 02 Dec 23:31:49 23:35:20 24° 93° (E) 23:38:48 437.405
TIGRISAT 02 Dec 23:35:13 23:39:34 49° 291° (WNW) 23:43:47 435.000
ANTELSAT 02 Dec 23:35:43 23:40:02 46° 291° (WNW) 23:44:13 437.575/2403.000
PRISM 02 Dec 23:40:31 23:42:27 13° 305° (NW) 23:44:23 437.425
ESTCUBE 1 02 Dec 23:41:18 23:45:28 38° 263° (W) 23:49:40 437.505/2401.250
UKube-1 02 Dec 23:44:02 23:48:13 52° 69° (ENE) 23:52:26 .
AISAT 03 Dec 00:03:08 00:07:24 47° 260° (W) 00:11:43 437.250
SPROUT 03 Dec 00:04:22 00:08:39 70° 256° (WSW) 00:13:00 437.525
TISAT 1 03 Dec 00:04:26 00:07:59 27° 63° (ENE) 00:11:35 437.305
Cosmos 2504 03 Dec 00:06:14 00:10:37 14° 319° (NW) 00:15:06 435.465 / 435.565
AUBIESAT-1 03 Dec 00:13:42 00:16:25 17° 49° (NE) 00:19:13 437.475
ITUPSAT 1 03 Dec 00:20:48 00:22:51 13° 51° (NE) 00:24:55 437.325
JAS-2 03 Dec 00:21:06 00:26:22 86° 105° (ESE) 00:31:38 435.910
M-CUBED/EXP-1 PRIME 03 Dec 00:22:05 00:25:19 22° 53° (NE) 00:28:43 437.505
NANOSAT C BR1 03 Dec 00:28:42 00:32:59 82° 103° (ESE) 00:37:12 145.865
BUGSAT 1 03 Dec 00:29:29 00:33:21 33° 96° (E) 00:37:08 437.445
QB50P2 03 Dec 00:30:57 00:35:15 84° 287° (WNW) 00:39:30 145.880/145.840
POLYITAN 1 03 Dec 00:31:36 00:35:54 88° 280° (W) 00:40:08 437.675
O/OREOS (USA 219) 03 Dec 00:32:23 00:34:42 14° 36° (NE) 00:37:01 437.305
SO-50 03 Dec 00:33:43 00:37:10 20° 340° (NNW) 00:40:35 436.795
ISS 03 Dec 00:34:05 00:36:21 17° 219° (SW) 00:38:37 145.825
CUBEBUG 1 03 Dec 00:40:49 00:43:43 17° 271° (W) 00:46:37 437.445
VELOX 1 03 Dec 00:41:22 00:44:53 23° 268° (W) 00:48:26 145.980
UNISAT 6 03 Dec 00:42:00 00:44:25 14° 305° (NW) 00:46:48 437.425
QB50P1 03 Dec 00:45:54 00:50:10 65° 287° (WNW) 00:54:21 145.935-145.965
DUCHIFAT 1 03 Dec 00:52:55 00:57:07 63° 289° (WNW) 01:01:18 145.980
50 SAT 03 Dec 01:03:05 01:04:23 12° 271° (W) 01:05:42 437.505
DX 1 03 Dec 01:06:53 01:10:15 22° 268° (W) 01:13:40 434.975-435.025
POPSAT HIP 1 03 Dec 01:07:14 01:11:17 42° 292° (WNW) 01:15:16 437.405
Gurwin Techsat 1B 03 Dec 01:07:23 01:09:51 13° 85° (E) 01:12:18 435.225
GONETS M04 03 Dec 01:08:47 01:17:11 55° 90° (E) 01:25:35
Cosmos 2499 03 Dec 01:15:44 01:24:10 65° 92° (E) 01:32:56 435.465 / 435.565
UKube-1 03 Dec 01:21:19 01:24:33 20° 268° (W) 01:27:49 .
SWISSCUBE 03 Dec 01:25:43 01:30:12 43° 67° (ENE) 01:34:44 437.505
BEESAT 03 Dec 01:30:09 01:34:39 42° 67° (ENE) 01:39:10 436.000
MOZHAYETS 4 03 Dec 01:33:01 01:35:23 14° 55° (NE) 01:37:44
Oscar 19 03 Dec 01:38:24 01:43:20 41° 98° (E) 01:48:13 437.125/150
TISAT 1 03 Dec 01:39:29 01:43:29 40° 262° (W) 01:47:31 437.305
AUBIESAT-1 03 Dec 01:46:03 01:50:11 86° 251° (WSW) 01:54:38 437.475
ITUPSAT 1 03 Dec 01:55:05 01:59:51 68° 71° (ENE) 02:04:37 437.325
M-CUBED/EXP-1 PRIME 03 Dec 01:55:21 01:59:23 59° 253° (WSW) 02:03:47 437.505
BUGSAT 1 03 Dec 02:04:56 02:08:41 31° 295° (WNW) 02:12:22 437.445
NANOSAT C BR1 03 Dec 02:05:44 02:08:08 15° 303° (WNW) 02:10:31 145.865
JAS-2 03 Dec 02:07:27 02:10:51 18° 307° (NW) 02:14:12 435.910
QB50P2 03 Dec 02:08:25 02:10:23 13° 305° (NW) 02:12:20 145.880/145.840
POLYITAN 1 03 Dec 02:08:57 02:11:03 13° 304° (NW) 02:13:06 437.675
O/OREOS (USA 219) 03 Dec 02:10:36 02:15:05 62° 59° (ENE) 02:19:31 437.305
SO-50 03 Dec 02:16:33 02:19:19 15° 5° (N) 02:22:04 436.795
QB50P1 03 Dec 02:24:23 02:25:05 10° 308° (NW) 02:25:48 145.935-145.965
KKS-1 03 Dec 02:27:48 02:31:05 20° 59° (ENE) 02:34:23 437.445
DUCHIFAT 1 03 Dec 02:31:39 02:31:58 10° 308° (NW) 02:32:17 145.980
STARS 03 Dec 02:44:23 02:47:01 16° 56° (NE) 02:49:39 437.465
Gurwin Techsat 1B 03 Dec 02:45:20 02:50:42 78° 104° (ESE) 02:56:01 435.225
AO-7 03 Dec 02:52:57 02:59:13 23° 88° (E) 03:05:27 29.400- 29.500
AO-85 03 Dec 02:54:46 02:58:47 26° 118° (ESE) 03:02:36 145.980
CUBESAT XI-V 03 Dec 03:02:35 03:05:25 16° 57° (ENE) 03:08:15 437.345
SWISSCUBE 03 Dec 03:04:00 03:08:09 29° 265° (W) 03:12:19 437.505
GONETS M04 03 Dec 03:06:07 03:14:19 43° 294° (WNW) 03:22:31
MOZHAYETS 4 03 Dec 03:07:14 03:11:51 82° 74° (ENE) 03:16:28
BEESAT 03 Dec 03:08:25 03:12:34 29° 265° (W) 03:16:45 436.000
Cosmos 2499 03 Dec 03:09:58 03:17:53 39° 296° (WNW) 03:26:06 435.465 / 435.565
Oscar 19 03 Dec 03:17:55 03:22:35 35° 297° (WNW) 03:27:15 437.125/150
AUBIESAT-1 03 Dec 03:23:53 03:25:21 12° 270° (W) 03:26:52 437.475
ITUPSAT 1 03 Dec 03:34:50 03:38:10 19° 270° (W) 03:41:30 437.325
ITAMSAT 1 03 Dec 03:38:10 03:43:19 58° 102° (ESE) 03:48:25 435.822/435.867
O/OREOS (USA 219) 03 Dec 03:50:54 03:54:03 19° 258° (WSW) 03:57:11 437.305
SO-50 03 Dec 03:57:17 04:01:15 27° 29° (NNE) 04:05:08 436.795
KKS-1 03 Dec 04:02:50 04:07:15 62° 258° (WSW) 04:11:44 437.445
STARS 03 Dec 04:18:20 04:22:46 84° 254° (WSW) 04:27:16 437.465
Gurwin Techsat 1B 03 Dec 04:26:11 04:30:06 21° 304° (NW) 04:34:00 435.225
AO-85 03 Dec 04:34:17 04:39:00 59° 315° (NW) 04:43:24 145.980
CUBESAT XI-V 03 Dec 04:37:37 04:42:13 83° 258° (WSW) 04:46:51 437.345
YUBILEINY 03 Dec 04:39:30 04:45:49 21° 51° (NE) 04:52:09 435.215
GOMX 1 03 Dec 04:43:07 04:43:52 10° 81° (E) 04:44:38 467.674
AO-7 03 Dec 04:44:46 04:53:12 85° 109° (ESE) 05:01:37 29.400- 29.500
BRITE-PL 03 Dec 04:46:51 04:51:01 23° 91° (E) 04:55:22 437.365/2234.400
MOZHAYETS 4 03 Dec 04:47:10 04:49:37 14° 273° (W) 04:52:06
HORYU 2 03 Dec 05:04:05 05:07:24 20° 91° (E) 05:10:41 437.375
GONETS M04 03 Dec 05:10:47 05:14:12 13° 322° (NW) 05:17:37
Cosmos 2499 03 Dec 05:11:14 05:14:18 12° 324° (NW) 05:17:22 435.465 / 435.565
STRAND 1 03 Dec 05:16:43 05:20:12 19° 55° (NE) 05:23:40 437.568
ITAMSAT 1 03 Dec 05:18:12 05:22:28 26° 301° (WNW) 05:26:42 435.822/435.867
Cosmos 2491 03 Dec 05:20:54 05:22:11 10° 64° (ENE) 05:23:28 435.465 / 435.565
NOAA 15 03 Dec 05:23:07 05:25:25 13° 85° (E) 05:27:44 137.62
SO-50 03 Dec 05:37:37 05:42:12 76° 231° (SW) 05:46:39 436.795
AIST 1 03 Dec 05:47:00 05:47:23 10° 57° (ENE) 05:47:45
STARS 03 Dec 05:58:23 05:59:51 11° 274° (W) 06:01:19 437.465
Cosmos 2504 03 Dec 05:59:07 06:06:38 29° 58° (ENE) 06:13:55 435.465 / 435.565
LilacSat-2 03 Dec 06:05:21 06:08:26 23° 93° (E) 06:11:30 437.200
BEESAT 3 03 Dec 06:05:49 06:09:06 26° 118° (ESE) 06:12:27 437.485
NOAA 18 03 Dec 06:08:36 06:12:31 19° 89° (E) 06:16:24 137.9125
AO-85 03 Dec 06:16:59 06:20:15 19° 337° (NNW) 06:23:21 145.980
GOMX 1 03 Dec 06:17:38 06:22:59 60° 100° (E) 06:28:24 467.674
CUBESAT XI-V 03 Dec 06:18:46 06:20:22 12° 275° (W) 06:21:57 437.345
BRITE-PL 03 Dec 06:24:41 06:29:51 65° 288° (WNW) 06:35:20 437.365/2234.400
CUTE-I 03 Dec 06:27:09 06:32:09 39° 97° (E) 06:37:06 437.470
BEESAT 2 03 Dec 06:27:59 06:31:04 22° 116° (ESE) 06:34:11 435.950
YUBILEINY 03 Dec 06:35:40 06:44:31 72° 76° (ENE) 06:53:20 435.215
AO-7 03 Dec 06:38:10 06:45:13 32° 312° (NW) 06:52:16 29.400- 29.500
HORYU 2 03 Dec 06:39:56 06:44:18 55° 290° (WNW) 06:48:37 437.375
DOVE 4 03 Dec 06:45:15 06:50:27 50° 98° (E) 06:55:33 437.250
HO-68 03 Dec 06:47:59 06:52:14 16° 84° (E) 06:56:26 435.675
Cubesat XI-IV 03 Dec 06:51:52 06:57:11 60° 101° (ESE) 07:02:27 437.490
CINEMA 3 03 Dec 06:51:56 06:55:12 18° 87° (E) 06:58:23 145.822/145.860
STRAND 1 03 Dec 06:53:35 06:58:45 86° 256° (WSW) 07:03:56 437.568
NOAA 15 03 Dec 07:00:48 07:06:06 77° 104° (ESE) 07:11:23 137.62
Cosmos 2491 03 Dec 07:08:25 07:16:41 48° 88° (E) 07:24:56 435.465 / 435.565
SO-50 03 Dec 07:20:00 07:21:52 12° 251° (WSW) 07:23:42 436.795
AIST 1 03 Dec 07:21:29 07:25:54 68° 78° (ENE) 07:30:17
PRISM 03 Dec 07:23:58 07:26:42 18° 59° (ENE) 07:29:26 437.425
CUBEBUG 2 03 Dec 07:33:44 07:34:56 11° 84° (E) 07:36:08 437.445
LilacSat-2 03 Dec 07:39:21 07:42:50 35° 292° (WNW) 07:46:16 437.200
BEESAT 3 03 Dec 07:42:46 07:46:34 46° 318° (NW) 07:50:25 437.485
RS-15 03 Dec 07:47:06 07:57:47 42° 109° (ESE) 08:08:52 29.354- 29.394
NOAA 18 03 Dec 07:48:15 07:53:50 79° 288° (WNW) 07:59:22 137.9125
Cosmos 2504 03 Dec 07:52:16 08:01:14 86° 262° (W) 08:09:47 435.465 / 435.565
CUTE 1.7 + AOD 2 03 Dec 07:55:27 07:59:22 36° 97° (E) 08:03:16 437.475
GOMX 1 03 Dec 07:56:16 08:00:43 27° 299° (WNW) 08:05:16 467.674
AO-85 03 Dec 08:00:17 08:02:17 13° 2° (N) 08:04:13 145.980
BEESAT 2 03 Dec 08:04:40 08:08:34 55° 316° (NW) 08:12:32 435.950
BRITE-PL 03 Dec 08:05:00 08:07:30 14° 307° (NW) 08:10:04 437.365/2234.400
CUTE-I 03 Dec 08:07:17 08:12:13 38° 296° (WNW) 08:17:06 437.470
CANX-2 03 Dec 08:12:37 08:16:49 61° 101° (E) 08:20:59 2200.000
Oscar 11 03 Dec 08:19:56 08:21:22 11° 86° (E) 08:22:47 145.826/435.025
UWE-3 03 Dec 08:21:30 08:24:50 21° 90° (E) 08:28:04 435.000/436.395/437.385
DOVE 4 03 Dec 08:23:17 08:27:54 31° 297° (WNW) 08:32:30 437.250
CINEMA 3 03 Dec 08:27:57 08:32:55 73° 287° (WNW) 08:37:39 145.822/145.860
AIST 2 03 Dec 08:28:05 08:29:47 12° 110° (ESE) 08:31:31 435.215
UNISAT 6 03 Dec 08:31:41 08:35:19 23° 61° (ENE) 08:38:56 437.425
AO-7 03 Dec 08:32:15 08:35:26 13° 338° (NNW) 08:38:38 29.400- 29.500
Cubesat XI-IV 03 Dec 08:32:31 08:36:55 27° 301° (WNW) 08:41:18 437.490
YUBILEINY 03 Dec 08:33:12 08:40:38 32° 279° (W) 08:48:06 435.215
HO-68 03 Dec 08:34:01 08:41:15 72° 105° (ESE) 08:48:27 435.675
AAUSAT CUBESAT 2 03 Dec 08:34:53 08:38:41 35° 96° (E) 08:42:29 437.432
STRAND 1 03 Dec 08:36:00 08:38:43 14° 274° (W) 08:41:26 437.568
NOAA 15 03 Dec 08:41:29 08:45:21 21° 304° (NW) 08:49:15 137.62
SEEDS 03 Dec 08:44:55 08:49:07 80° 104° (ESE) 08:53:18 437.485
JAS-2 03 Dec 08:56:18 08:59:42 16° 51° (NE) 09:02:56 435.910
PRISM 03 Dec 08:57:33 09:01:34 62° 258° (WSW) 09:05:39 437.425
AIST 1 03 Dec 09:00:23 09:02:57 15° 277° (W) 09:05:33
COMPASS 1 03 Dec 09:01:35 09:05:46 82° 105° (ESE) 09:09:55 437.405
TIGRISAT 03 Dec 09:01:53 09:06:11 37° 66° (ENE) 09:10:28 435.000
ANTELSAT 03 Dec 09:02:25 09:06:47 39° 67° (ENE) 09:11:05 437.575/2403.000
Cosmos 2491 03 Dec 09:05:07 09:13:34 49° 291° (WNW) 09:22:02 435.465 / 435.565
CUBEBUG 2 03 Dec 09:07:49 09:12:23 82° 106° (ESE) 09:16:44 437.445
ZACube-1 03 Dec 09:09:34 09:13:35 37° 96° (E) 09:17:29 437.345
Cosmos 2499 03 Dec 09:10:33 09:12:28 11° 33° (NNE) 09:14:23 435.465 / 435.565
GONETS M04 03 Dec 09:18:09 09:20:05 11° 34° (NE) 09:22:00
FUNcube-1 03 Dec 09:19:07 09:23:13 42° 97° (E) 09:27:12 145.935
BEESAT 3 03 Dec 09:22:45 09:25:07 15° 340° (NNW) 09:27:30 437.485
NOAA 18 03 Dec 09:30:08 09:33:42 18° 309° (NW) 09:37:14 137.9125
CUTE 1.7 + AOD 2 03 Dec 09:31:31 09:35:07 28° 295° (WNW) 09:38:42 437.475
HUMSAT D 03 Dec 09:31:32 09:33:18 12° 87° (E) 09:35:02 437.325/437.525
AO-85 03 Dec 09:40:58 09:44:14 21° 27° (NNE) 09:47:21 145.980
BEESAT 2 03 Dec 09:44:34 09:47:12 17° 338° (NNW) 09:49:50 435.950
Cosmos 2504 03 Dec 09:46:53 09:53:21 23° 285° (WNW) 09:59:38 435.465 / 435.565
CANX-2 03 Dec 09:49:23 09:52:16 18° 300° (WNW) 09:55:09 2200.000
NANOSAT C BR1 03 Dec 09:51:33 09:54:16 17° 58° (ENE) 09:56:59 145.865
QB50P2 03 Dec 09:53:49 09:56:53 19° 60° (ENE) 09:59:58 145.880/145.840
Oscar 11 03 Dec 09:53:50 09:58:10 89° 104° (ESE) 10:02:29 145.826/435.025
POLYITAN 1 03 Dec 09:54:31 09:57:32 19° 59° (ENE) 10:00:33 437.675
UWE-3 03 Dec 09:57:19 10:01:37 50° 290° (WNW) 10:05:45 435.000/436.395/437.385
RS-15 03 Dec 09:57:30 10:09:30 78° 316° (NW) 10:21:59 29.354- 29.394
DELFI C3 03 Dec 10:01:28 10:05:16 42° 98° (E) 10:09:03 145.870
AIST 2 03 Dec 10:03:27 10:07:34 83° 132° (SE) 10:11:47 435.215
CINEMA 3 03 Dec 10:06:42 10:09:10 14° 307° (NW) 10:11:36 145.822/145.860
UNISAT 6 03 Dec 10:07:03 10:11:42 58° 259° (W) 10:16:19 437.425
QB50P1 03 Dec 10:08:05 10:11:31 24° 62° (ENE) 10:14:58 145.935-145.965
AAUSAT CUBESAT 2 03 Dec 10:10:32 10:14:05 28° 295° (WNW) 10:17:37 437.432
DUCHIFAT 1 03 Dec 10:14:33 10:17:58 24° 62° (ENE) 10:21:25 145.980
SEEDS 03 Dec 10:21:56 10:24:15 15° 302° (WNW) 10:26:36 437.485
HO-68 03 Dec 10:22:20 10:28:29 32° 306° (NW) 10:34:39 435.675
POPSAT HIP 1 03 Dec 10:28:42 10:32:37 35° 66° (ENE) 10:36:32 437.405
JAS-2 03 Dec 10:37:35 10:43:59 68° 71° (ENE) 10:49:41 435.910
COMPASS 1 03 Dec 10:38:31 10:40:45 14° 303° (WNW) 10:42:59 437.405
TIGRISAT 03 Dec 10:38:39 10:42:54 33° 265° (W) 10:47:07 435.000
CUSAT 1 03 Dec 10:39:17 10:42:27 65° 282° (WNW) 10:45:11 437.405
ANTELSAT 03 Dec 10:39:23 10:43:33 31° 265° (W) 10:47:42 437.575/2403.000
CUBEBUG 2 03 Dec 10:45:40 10:48:23 16° 304° (WNW) 10:51:01 437.445
ZACube-1 03 Dec 10:46:05 10:49:46 28° 296° (WNW) 10:53:22 437.345
DANDE 03 Dec 10:52:58 10:57:27 46° 99° (E) 11:00:53 436.750
FUNcube-1 03 Dec 10:55:45 10:59:16 25° 297° (WNW) 11:02:43 145.935
Cosmos 2499 03 Dec 11:01:11 11:09:06 35° 62° (ENE) 11:16:35 435.465 / 435.565
BEESAT 3 03 Dec 11:03:03 11:04:21 11° 4° (N) 11:05:39 437.485
HUMSAT D 03 Dec 11:05:22 11:09:29 78° 286° (WNW) 11:13:33 437.325/437.525
Cosmos 2491 03 Dec 11:08:43 11:13:09 14° 318° (NW) 11:17:35 435.465 / 435.565
GONETS M04 03 Dec 11:12:23 11:20:20 37° 63° (ENE) 11:28:14
PCSat 03 Dec 11:18:06 11:20:02 12° 102° (ESE) 11:21:58 145.827
AO-85 03 Dec 11:21:07 11:25:13 89° 228° (SW) 11:29:07 145.980
Oscar 19 03 Dec 11:23:12 11:26:40 19° 55° (NE) 11:30:09 437.125/150
BUGSAT 1 03 Dec 11:23:31 11:27:34 45° 69° (ENE) 11:31:38 437.445
BEESAT 2 03 Dec 11:25:12 11:26:34 11° 2° (N) 11:27:56 435.950
NANOSAT C BR1 03 Dec 11:25:14 11:29:29 72° 256° (WSW) 11:33:48 145.865
QB50P2 03 Dec 11:28:04 11:32:18 60° 258° (WSW) 11:36:34 145.880/145.840
ESTCUBE 1 03 Dec 11:28:21 11:32:23 31° 95° (E) 11:36:24 437.505/2401.250
POLYITAN 1 03 Dec 11:28:39 11:32:55 62° 259° (WSW) 11:37:12 437.675
Oscar 11 03 Dec 11:31:26 11:33:41 14° 304° (WNW) 11:35:57 145.826/435.025
DELFI C3 03 Dec 11:36:46 11:39:52 22° 297° (WNW) 11:42:58 145.870
QB50P1 03 Dec 11:42:57 11:47:04 46° 261° (W) 11:51:13 145.935-145.965
AIST 2 03 Dec 11:43:10 11:46:33 23° 331° (NNW) 11:49:58 435.215
SPROUT 03 Dec 11:46:20 11:48:47 15° 88° (E) 11:51:11 437.525
AISAT 03 Dec 11:48:20 11:51:56 23° 93° (E) 11:55:31 437.250
DUCHIFAT 1 03 Dec 11:49:21 11:53:26 45° 261° (W) 11:57:34 145.980
POPSAT HIP 1 03 Dec 12:04:39 12:08:26 30° 265° (W) 12:12:14 437.405
AO-7 03 Dec 12:08:54 12:13:59 18° 33° (NNE) 12:19:04 29.400- 29.500
RS-15 03 Dec 12:12:35 12:24:09 45° 347° (NNW) 12:35:56 29.354- 29.394
HO-68 03 Dec 12:13:23 12:14:03 10° 330° (NNW) 12:14:44 435.675
50 SAT 03 Dec 12:21:39 12:24:57 35° 98° (E) 12:28:15 437.505
CUBEBUG 1 03 Dec 12:22:10 12:26:37 64° 102° (ESE) 12:31:01 437.445
JAS-2 03 Dec 12:24:22 12:29:29 25° 268° (W) 12:34:12 435.910
VELOX 1 03 Dec 12:25:01 12:29:22 47° 99° (E) 12:33:41 145.980
Gurwin Techsat 1B 03 Dec 12:32:27 12:37:13 35° 63° (ENE) 12:42:01 435.225
DANDE 03 Dec 12:37:16 12:40:10 17° 291° (WNW) 12:42:39 436.750
BEESAT 3 03 Dec 12:40:21 12:43:25 21° 28° (NNE) 12:46:28 437.485
HUMSAT D 03 Dec 12:43:05 12:44:23 11° 305° (NW) 12:45:40 437.325/437.525
DX 1 03 Dec 12:48:36 12:52:51 45° 99° (E) 12:57:04 434.975-435.025
Cosmos 2499 03 Dec 12:54:16 13:03:00 70° 266° (W) 13:11:10 435.465 / 435.565
PCSat 03 Dec 12:57:02 13:02:24 66° 122° (ESE) 13:07:48 145.827
BUGSAT 1 03 Dec 12:59:46 13:03:08 23° 267° (W) 13:06:33 437.445
Oscar 19 03 Dec 13:00:14 13:05:22 86° 255° (WSW) 13:10:33 437.125/150
UKube-1 03 Dec 13:01:48 13:06:00 46° 100° (E) 13:10:11 .
BEESAT 2 03 Dec 13:02:54 13:05:52 19° 26° (NNE) 13:08:49 435.950
AO-85 03 Dec 13:03:21 13:04:54 12° 250° (WSW) 13:06:27 145.980
ESTCUBE 1 03 Dec 13:05:06 13:09:14 36° 294° (WNW) 13:13:22 437.505/2401.250
GONETS M04 03 Dec 13:09:11 13:17:45 65° 267° (W) 13:26:19
TISAT 1 03 Dec 13:18:26 13:21:47 22° 93° (E) 13:25:06 437.305
SPROUT 03 Dec 13:20:54 13:25:13 73° 288° (WNW) 13:29:29 437.525
ITAMSAT 1 03 Dec 13:23:02 13:27:19 27° 59° (ENE) 13:31:38 435.822/435.867
AISAT 03 Dec 13:24:19 13:28:39 48° 291° (WNW) 13:32:57 437.250
AIST 2 03 Dec 13:24:36 13:26:29 13° 355° (N) 13:28:21 435.215
ITUPSAT 1 03 Dec 13:52:32 13:54:15 12° 85° (E) 13:55:57 437.325
50 SAT 03 Dec 13:55:21 13:58:06 21° 296° (WNW) 14:00:51 437.505
AO-7 03 Dec 13:57:03 14:04:56 50° 57° (ENE) 14:12:52 29.400- 29.500
CUBEBUG 1 03 Dec 13:59:18 14:02:29 19° 301° (WNW) 14:05:38 437.445
VELOX 1 03 Dec 14:01:56 14:05:36 25° 298° (WNW) 14:09:14 145.980
Gurwin Techsat 1B 03 Dec 14:12:02 14:17:06 43° 262° (W) 14:22:11 435.225
BEESAT 3 03 Dec 14:17:35 14:21:36 86° 48° (NE) 14:25:36 437.485
DX 1 03 Dec 14:25:13 14:28:51 25° 298° (WNW) 14:32:27 434.975-435.025
RS-15 03 Dec 14:28:07 14:40:01 48° 20° (NNE) 14:51:49 29.354- 29.394
UKube-1 03 Dec 14:38:18 14:41:50 24° 298° (WNW) 14:45:20 .
BEESAT 2 03 Dec 14:40:16 14:44:19 73° 48° (NE) 14:48:21 435.950
PCSat 03 Dec 14:41:20 14:46:12 33° 323° (NW) 14:51:07 145.827
Oscar 19 03 Dec 14:42:49 14:45:29 14° 274° (W) 14:48:11 437.125/150
Cosmos 2499 03 Dec 14:49:14 14:54:25 18° 289° (WNW) 14:59:26 435.465 / 435.565
TISAT 1 03 Dec 14:53:34 14:57:39 45° 291° (WNW) 15:01:40 437.305
AUBIESAT-1 03 Dec 14:53:58 14:58:14 34° 102° (ESE) 15:02:22 437.475
SWISSCUBE 03 Dec 14:58:06 15:02:44 49° 100° (E) 15:07:19 437.505
MOZHAYETS 4 03 Dec 14:58:36 15:00:56 14° 87° (E) 15:03:14
SPROUT 03 Dec 14:58:54 15:00:23 12° 306° (NW) 15:01:51 437.525
ITAMSAT 1 03 Dec 15:01:20 15:06:29 58° 259° (WSW) 15:11:40 435.822/435.867
BEESAT 03 Dec 15:02:28 15:07:06 49° 100° (E) 15:11:42 436.000
M-CUBED/EXP-1 PRIME 03 Dec 15:03:28 15:08:04 50° 105° (ESE) 15:12:34 437.505
AIST 2 03 Dec 15:03:55 15:06:37 16° 19° (NNE) 15:09:17 435.215
GONETS M04 03 Dec 15:08:13 15:12:47 16° 290° (WNW) 15:17:21
ITUPSAT 1 03 Dec 15:28:05 15:32:53 80° 104° (ESE) 15:37:39 437.325
KKS-1 03 Dec 15:49:25 15:52:32 18° 90° (E) 15:55:38 437.445
AO-7 03 Dec 15:49:46 15:57:45 50° 259° (W) 16:05:51 29.400- 29.500
GOMX 1 03 Dec 15:54:58 15:58:00 17° 55° (NE) 16:01:10 467.674
BEESAT 3 03 Dec 15:56:37 15:58:39 14° 248° (WSW) 16:00:42 437.485
NOAA 18 03 Dec 16:02:42 16:05:13 13° 46° (NE) 16:07:43 137.9125
BRITE-PL 03 Dec 16:03:06 16:07:02 35° 65° (ENE) 16:11:15 437.365/2234.400
STARS 03 Dec 16:04:21 16:06:18 13° 87° (E) 16:08:15 437.465
HORYU 2 03 Dec 16:06:25 16:10:30 35° 65° (ENE) 16:14:35 437.375
CUTE-I 03 Dec 16:16:03 16:19:53 20° 55° (NE) 16:23:43 437.470
BEESAT 2 03 Dec 16:19:02 16:21:39 17° 246° (WSW) 16:24:15 435.950
DOVE 4 03 Dec 16:20:27 16:23:12 15° 53° (NE) 16:26:02 437.250
PCSat 03 Dec 16:28:03 16:31:18 16° 348° (NNW) 16:34:34 145.827
AUBIESAT-1 03 Dec 16:28:20 16:32:38 38° 300° (WNW) 16:36:50 437.475
O/OREOS (USA 219) 03 Dec 16:28:27 16:32:14 26° 105° (ESE) 16:36:01 437.305
CUBESAT XI-V 03 Dec 16:29:48 16:32:58 18° 89° (E) 16:36:08 437.345
MOZHAYETS 4 03 Dec 16:34:08 16:38:44 84° 285° (WNW) 16:43:17
SWISSCUBE 03 Dec 16:36:21 16:40:17 27° 299° (WNW) 16:44:14 437.505
M-CUBED/EXP-1 PRIME 03 Dec 16:38:16 16:42:17 28° 304° (NW) 16:46:16 437.505
Cubesat XI-IV 03 Dec 16:40:07 16:44:39 29° 60° (ENE) 16:49:13 437.490
BEESAT 03 Dec 16:40:42 16:44:39 27° 299° (WNW) 16:48:37 436.000
RS-15 03 Dec 16:41:41 16:54:11 89° 53° (NE) 17:06:22 29.354- 29.394
AIST 2 03 Dec 16:41:59 16:46:04 46° 41° (NE) 16:50:09 435.215
NOAA 15 03 Dec 16:47:06 16:51:47 35° 62° (ENE) 16:56:30 137.62
LilacSat-2 03 Dec 16:52:00 16:55:11 25° 65° (ENE) 16:58:23 437.200
ITUPSAT 1 03 Dec 17:06:59 17:10:10 18° 304° (NW) 17:13:20 437.325
Cosmos 2491 03 Dec 17:11:57 17:19:39 33° 61° (ENE) 17:27:15 435.465 / 435.565
ISS 03 Dec 17:18:29 17:19:31 11° 137° (SE) 17:20:35 145.825
HO-68 03 Dec 17:22:15 17:27:45 25° 49° (NE) 17:33:16 435.675
KKS-1 03 Dec 17:25:03 17:29:30 62° 290° (WNW) 17:33:57 437.445
GOMX 1 03 Dec 17:30:49 17:35:23 83° 256° (WSW) 17:40:22 467.674
CANX-2 03 Dec 17:37:11 17:38:54 12° 56° (NE) 17:40:38 2200.000
STARS 03 Dec 17:38:50 17:43:19 88° 285° (WNW) 17:47:44 437.465
NOAA 18 03 Dec 17:39:22 17:44:47 57° 67° (ENE) 17:50:14 137.9125
BRITE-PL 03 Dec 17:41:49 17:45:37 30° 267° (W) 17:49:40 437.365/2234.400
HORYU 2 03 Dec 17:43:02 17:47:05 32° 264° (W) 17:51:07 437.375
YUBILEINY 03 Dec 17:51:04 17:55:59 17° 70° (ENE) 18:00:56 435.215
AO-7 03 Dec 17:51:29 17:52:44 10° 282° (WNW) 17:54:01 29.400- 29.500
CUTE-I 03 Dec 17:53:56 17:59:20 84° 255° (WSW) 18:04:45 437.470
DOVE 4 03 Dec 17:55:14 18:00:01 78° 74° (ENE) 18:05:09 437.250
CINEMA 3 03 Dec 17:57:34 18:01:48 29° 62° (ENE) 18:06:06 145.822/145.860
CUBESAT XI-V 03 Dec 18:06:11 18:10:49 67° 288° (WNW) 18:15:26 437.345
O/OREOS (USA 219) 03 Dec 18:07:02 18:11:26 46° 304° (NW) 18:15:50 437.305
SEEDS 03 Dec 18:07:49 18:10:07 15° 58° (ENE) 18:12:26 437.485
MOZHAYETS 4 03 Dec 18:12:50 18:15:12 14° 305° (NW) 18:17:35
PCSat 03 Dec 18:13:29 18:16:56 17° 15° (NNE) 18:20:23 145.827
Cubesat XI-IV 03 Dec 18:19:12 18:24:28 55° 259° (W) 18:29:47 437.490
AIST 2 03 Dec 18:20:43 18:24:25 30° 241° (WSW) 18:28:08 435.215
COMPASS 1 03 Dec 18:23:38 18:25:54 14° 58° (ENE) 18:28:10 437.405
LilacSat-2 03 Dec 18:25:49 18:29:22 34° 263° (W) 18:32:55 437.200
NOAA 15 03 Dec 18:26:32 18:31:29 42° 262° (W) 18:36:29 137.62
CUBEBUG 2 03 Dec 18:35:12 18:38:37 20° 59° (ENE) 18:42:01 437.445
Cosmos 2504 03 Dec 18:46:37 18:51:53 18° 71° (ENE) 18:57:16 435.465 / 435.565
FUNcube-1 03 Dec 18:46:46 18:47:50 11° 53° (NE) 18:48:55 145.935
ISS 03 Dec 18:52:13 18:55:24 46° 155° (SSE) 18:58:36 145.825
CUTE 1.7 + AOD 2 03 Dec 18:52:37 18:56:41 48° 70° (ENE) 19:00:45 437.475
RS-15 03 Dec 18:54:57 19:05:21 34° 255° (WSW) 19:15:33 29.354- 29.394
STRAND 1 03 Dec 18:59:35 19:03:33 22° 91° (E) 19:07:29 437.568
KKS-1 03 Dec 19:04:01 19:05:13 11° 309° (NW) 19:06:23 437.445
HO-68 03 Dec 19:07:25 19:14:36 86° 71° (ENE) 19:21:51 435.675
Cosmos 2491 03 Dec 19:08:39 19:17:21 74° 265° (W) 19:26:00 435.465 / 435.565
CANX-2 03 Dec 19:09:52 19:14:05 82° 77° (ENE) 19:18:20 2200.000
GOMX 1 03 Dec 19:12:34 19:14:25 12° 277° (W) 19:16:18 467.674
STARS 03 Dec 19:16:37 19:19:00 14° 305° (NW) 19:21:23 437.465
Oscar 11 03 Dec 19:18:48 19:21:45 18° 59° (ENE) 19:24:42 145.826/435.025
NOAA 18 03 Dec 19:21:07 19:25:47 27° 267° (W) 19:30:29 137.9125
UWE-3 03 Dec 19:22:35 19:26:44 33° 66° (ENE) 19:30:51 435.000/436.395/437.385
AAUSAT CUBESAT 2 03 Dec 19:29:34 19:33:28 44° 70° (ENE) 19:37:24 437.432
CINEMA 3 03 Dec 19:33:56 19:38:42 48° 262° (W) 19:43:36 145.822/145.860
DOVE 4 03 Dec 19:35:17 19:38:24 17° 274° (W) 19:41:37 437.250
CUTE-I 03 Dec 19:37:20 19:40:13 14° 274° (W) 19:43:06 437.470
SEEDS 03 Dec 19:41:06 19:45:16 80° 256° (WSW) 19:49:28 437.485
YUBILEINY 03 Dec 19:42:28 19:51:03 68° 94° (E) 19:59:44 435.215
CUBESAT XI-V 03 Dec 19:45:39 19:47:21 12° 307° (NW) 19:49:03 437.345
O/OREOS (USA 219) 03 Dec 19:50:28 19:52:01 11° 327° (NNW) 19:53:35 437.305
AIST 1 03 Dec 19:56:15 19:59:59 30° 90° (E) 20:03:47
COMPASS 1 03 Dec 19:56:46 20:00:54 80° 258° (WSW) 20:05:04 437.405
PCSat 03 Dec 19:56:49 20:01:53 38° 39° (NE) 20:06:56 145.827
SO-50 03 Dec 20:00:38 20:01:04 10° 107° (ESE) 20:01:31 436.795
ZACube-1 03 Dec 20:09:30 20:13:57 55° 71° (ENE) 20:18:22 437.345
CUBEBUG 2 03 Dec 20:10:01 20:14:47 69° 258° (WSW) 20:19:32 437.445
FUNcube-1 03 Dec 20:18:45 20:23:14 63° 72° (ENE) 20:27:41 145.935
HUMSAT D 03 Dec 20:26:59 20:29:55 19° 60° (ENE) 20:32:51 437.325/437.525
ISS 03 Dec 20:28:31 20:31:50 79° 354° (N) 20:35:09 145.825
CUTE 1.7 + AOD 2 03 Dec 20:29:36 20:32:46 21° 269° (W) 20:35:58 437.475
Cosmos 2504 03 Dec 20:35:18 20:43:36 71° 94° (E) 20:52:25 435.465 / 435.565
PRISM 03 Dec 20:35:19 20:37:16 13° 88° (E) 20:39:12 437.425
STRAND 1 03 Dec 20:38:06 20:43:09 61° 290° (WNW) 20:48:09 437.568
CANX-2 03 Dec 20:48:40 20:50:32 13° 273° (W) 20:52:23 2200.000
DELFI C3 03 Dec 20:51:38 20:55:25 48° 71° (ENE) 20:59:14 145.870
Oscar 11 03 Dec 20:53:09 20:57:27 65° 258° (WSW) 21:01:46 145.826/435.025
HO-68 03 Dec 20:57:46 21:03:13 23° 271° (W) 21:08:44 435.675
UWE-3 03 Dec 20:58:49 21:03:08 37° 264° (W) 21:07:26 435.000/436.395/437.385
CUSAT 1 03 Dec 21:04:02 21:07:13 74° 258° (WSW) 21:11:14 437.405
AAUSAT CUBESAT 2 03 Dec 21:05:58 21:09:09 22° 268° (W) 21:12:22 437.432
Cosmos 2491 03 Dec 21:07:13 21:12:38 19° 288° (WNW) 21:18:02 435.465 / 435.565
DANDE 03 Dec 21:24:35 21:27:03 35° 74° (ENE) 21:29:46 436.750
AIST 1 03 Dec 21:33:38 21:37:32 33° 289° (WNW) 21:41:30
SO-50 03 Dec 21:35:57 21:40:39 61° 126° (SE) 21:45:17 436.795
PCSat 03 Dec 21:40:14 21:45:31 53° 241° (WSW) 21:50:46 145.827
YUBILEINY 03 Dec 21:40:46 21:48:34 35° 298° (WNW) 21:56:29 435.215
ZACube-1 03 Dec 21:47:07 21:50:32 21° 269° (W) 21:53:58 437.345
CUBEBUG 1 03 Dec 21:48:51 21:51:22 15° 56° (NE) 21:53:53 437.445
CUBEBUG 2 03 Dec 21:51:45 21:52:15 10° 277° (W) 21:52:45 437.445
VELOX 1 03 Dec 21:53:32 21:55:30 13° 54° (NE) 21:57:28 145.980
UNISAT 6 03 Dec 21:54:22 21:57:48 21° 91° (E) 22:01:08 437.425
FUNcube-1 03 Dec 21:56:43 21:59:52 18° 270° (W) 22:03:00 145.935
HUMSAT D 03 Dec 22:01:00 22:05:10 60° 259° (W) 22:09:19 437.325/437.525
ISS 03 Dec 22:05:05 22:08:25 83° 191° (SSW) 22:11:44 145.825
PRISM 03 Dec 22:08:56 22:13:06 78° 285° (WNW) 22:17:15 437.425
DX 1 03 Dec 22:15:49 22:17:32 12° 53° (NE) 22:19:14 434.975-435.025
STRAND 1 03 Dec 22:19:14 22:21:22 13° 311° (NW) 22:23:30 437.568
TIGRISAT 03 Dec 22:24:45 22:28:55 37° 97° (E) 22:32:58 435.000
ANTELSAT 03 Dec 22:25:30 22:29:43 40° 97° (E) 22:33:49 437.575/2403.000
DELFI C3 03 Dec 22:27:46 22:30:31 18° 269° (W) 22:33:17 145.870
UKube-1 03 Dec 22:28:07 22:29:47 12° 53° (NE) 22:31:28 .
Cosmos 2504 03 Dec 22:30:14 22:37:48 35° 299° (WNW) 22:45:45 435.465 / 435.565
ESTCUBE 1 03 Dec 22:32:25 22:36:45 51° 69° (ENE) 22:41:07 437.505/2401.250
SPROUT 03 Dec 22:44:11 22:47:31 22° 61° (ENE) 22:50:52 437.525
AISAT 03 Dec 22:50:06 22:54:11 38° 66° (ENE) 22:58:19 437.250
50 SAT 03 Dec 23:01:39 23:04:49 32° 68° (ENE) 23:08:00 437.505
NANOSAT C BR1 03 Dec 23:06:01 23:08:06 13° 87° (E) 23:10:10 145.865
QB50P2 03 Dec 23:08:52 23:11:33 16° 89° (E) 23:14:14 145.880/145.840
POLYITAN 1 03 Dec 23:09:34 23:12:09 15° 89° (E) 23:14:42 437.675
